EW7082 Weather Reports


time (UTC)temp
C
wind
direction
speed
KPH
gust
KPH
rain 1hr
cm
rain 24hr
cm
rain mn
cm
humidity
%
barometer
mb
20260504215205 18 264 17.7 25.7 0.00 0.00 0.00 66 1010.8
20260504214205 18 283 11.3 19.3 0.00 0.00 0.00 70 1011.0
20260504213705 18 293 14.5 22.5 0.00 0.00 0.00 69 1011.0
20260504213204 18 302 16.1 24.1 0.00 0.00 0.00 68 1011.1
20260504212703 18 291 12.9 19.3 0.00 0.00 0.00 67 1011.1
20260504212205 18 286 9.7 14.5 0.00 0.00 0.00 68 1011.1
20260504211703 18 279 8.0 19.3 0.00 0.00 0.00 68 1011.1
20260504211203 19 306 12.9 20.9 0.00 0.00 0.00 65 1011.1
20260504210704 18 297 9.7 14.5 0.00 0.00 0.00 67 1011.1
20260504210204 18 282 9.7 16.1 0.00 0.00 0.00 66 1011.0
20260504205705 18 307 11.3 16.1 0.00 0.00 0.00 68 1011.0
20260504205205 18 292 11.3 19.3 0.00 0.00 0.00 68 1011.0
20260504204704 18 295 11.3 16.1 0.00 0.00 0.00 65 1011.0
20260504204205 18 283 11.3 19.3 0.00 0.00 0.00 64 1011.0
20260504203705 19 282 12.9 19.3 0.00 0.00 0.00 64 1011.0
20260504203205 19 284 12.9 19.3 0.00 0.00 0.00 64 1011.0
20260504202704 18 302 9.7 14.5 0.00 0.00 0.00 66 1011.0
20260504202205 18 281 11.3 14.5 0.00 0.00 0.00 66 1011.0
20260504200705 19 311 11.3 16.1 0.00 0.00 0.00 64 1011.1
20260504200204 19 284 9.7 14.5 0.00 0.00 0.00 64 1011.0
20260504195704 19 274 9.7 16.1 0.00 0.00 0.00 64 1011.0
20260504195206 19 265 9.7 16.1 0.00 0.00 0.00 64 1011.1
20260504194704 19 269 6.4 16.1 0.00 0.00 0.00 65 1011.0
20260504194204 19 307 8.0 14.5 0.00 0.00 0.00 65 1011.0
20260504193705 19 305 9.7 16.1 0.00 0.00 0.00 63 1011.0
20260504193204 20 296 14.5 19.3 0.00 0.00 0.00 60 1011.0
20260504192204 22 294 11.3 19.3 0.00 0.00 0.00 55 1010.9
20260504191203 23 276 9.7 14.5 0.00 0.00 0.00 53 1010.8
20260504190705 23 314 11.3 14.5 0.00 0.00 0.00 50 1010.8
20260504190204 23 274 4.8 12.9 0.00 0.00 0.00 52 1010.8
20260504185205 22 292 4.8 11.3 0.00 0.00 0.00 53 1010.8
20260504184704 23 303 8.0 14.5 0.00 0.00 0.00 52 1010.8
20260504183706 22 286 3.2 11.3 0.00 0.00 0.00 55 1010.9
20260504183204 22 311 3.2 8.0 0.00 0.00 0.00 56 1011.0
20260504182704 22 327 3.2 8.0 0.00 0.00 0.00 55 1011.0
20260504181205 21 277 4.8 12.9 0.00 0.00 0.00 54 1011.1
20260504180704 22 292 3.2 12.9 0.00 0.00 0.00 54 1011.1
20260504180205 22 306 4.8 11.3 0.00 0.00 0.00 58 1011.0
20260504175704 22 334 4.8 12.9 0.00 0.00 0.00 56 1011.0
20260504174704 21 323 4.8 12.9 0.00 0.00 0.00 58 1011.0
20260504173705 21 332 4.8 11.3 0.00 0.00 0.00 57 1011.0
20260504173204 21 322 4.8 8.0 0.00 0.00 0.00 57 1011.1
20260504172703 21 316 6.4 12.9 0.00 0.00 0.00 58 1011.1
20260504172205 21 294 6.4 12.9 0.00 0.00 0.00 57 1011.1
20260504171705 21 359 4.8 11.3 0.00 0.00 0.00 58 1011.1
20260504171204 21 310 8.0 16.1 0.00 0.00 0.00 56 1011.1
20260504170705 21 292 6.4 12.9 0.00 0.00 0.00 59 1011.2
20260504160204 20 287 6.4 12.9 0.00 0.00 0.00 58 1011.1
20260504150706 18 292 1.6 3.2 0.00 0.00 0.00 68 1010.6
20260504150204 17 290 0.0 1.6 0.00 0.00 0.00 67 1010.6
20260504141204 12 294 0.0 4.8 0.00 0.00 0.00 81 1010.4
20260504140203 12 263 3.2 4.8 0.00 0.00 0.00 81 1010.3
20260504130705 10 244 1.6 3.2 0.00 0.00 0.00 81 1010.0
20260504130204 10 244 1.6 3.2 0.00 0.00 0.00 82 1010.0
20260504120205 8 169 3.2 4.8 0.00 0.00 0.00 86 1010.1
20260504110705 9 232 1.6 4.8 0.00 0.00 0.00 81 1009.9
20260504110204 9 232 1.6 3.2 0.00 0.00 0.00 80 1009.9
20260504081703 15 180 4.8 9.7 0.00 0.00 0.00 61 1009.3
20260504081203 15 182 3.2 4.8 0.00 0.00 0.00 61 1009.3
20260504080705 15 187 3.2 4.8 0.00 0.00 0.00 63 1009.4
20260504080204 14 185 1.6 3.2 0.00 0.00 0.00 65 1009.4
20260504070204 11 215 3.2 4.8 0.00 0.00 0.00 79 1009.7
20260504060204 12 214 0.0 0.0 0.00 0.00 0.00 80 1010.0
20260504050705 15 214 0.0 0.0 0.00 0.00 0.00 70 1010.0
20260504050204 15 214 0.0 0.0 0.00 0.00 0.00 69 1010.0
20260504045704 15 214 0.0 0.0 0.00 0.00 0.00 69 1009.9
20260504045204 15 214 0.0 0.0 0.00 0.00 0.00 69 1010.0
20260504044705 15 291 0.0 0.0 0.00 0.00 0.00 68 1009.9
20260504044204 15 291 0.0 3.2 0.00 0.00 0.00 68 1009.9
20260504042204 16 223 0.0 0.0 0.00 0.00 0.00 67 1009.9
20260504041704 16 223 0.0 3.2 0.00 0.00 0.00 66 1009.9
20260504040704 16 209 1.6 4.8 0.00 0.00 0.00 68 1009.8
20260504040205 15 209 3.2 4.8 0.00 0.00 0.00 69 1009.8
20260504035205 17 194 3.2 4.8 0.00 0.00 0.00 65 1009.6
20260504034704 17 194 4.8 4.8 0.00 0.00 0.00 63 1009.6
20260504034204 18 193 3.2 4.8 0.00 0.00 0.00 61 1009.6
20260504033204 19 193 3.2 4.8 0.00 0.00 0.00 57 1009.6
20260504032205 20 211 1.6 3.2 0.00 0.00 0.00 54 1009.6
20260504031704 21 211 1.6 3.2 0.00 0.00 0.00 51 1009.5
20260504031205 21 211 0.0 1.6 0.00 0.00 0.00 51 1009.6
20260504030206 22 211 1.6 1.6 0.00 0.00 0.00 50 1009.6
20260504025704 22 211 1.6 3.2 0.00 0.00 0.00 49 1009.6
20260504025205 22 211 3.2 4.8 0.00 0.00 0.00 49 1009.7
20260504024703 23 211 3.2 4.8 0.00 0.00 0.00 47 1009.7
20260504024204 24 212 3.2 4.8 0.00 0.00 0.00 42 1009.7
20260504023706 25 191 3.2 4.8 0.00 0.00 0.00 39 1009.8
20260504023206 25 231 3.2 4.8 0.00 0.00 0.00 37 1009.8
20260504022704 25 272 1.6 4.8 0.00 0.00 0.00 35 1009.9
20260504022204 25 288 3.2 4.8 0.00 0.00 0.00 37 1010.0
20260504021203 25 286 3.2 4.8 0.00 0.00 0.00 36 1010.0
20260504020704 25 288 3.2 4.8 0.00 0.00 0.00 36 1010.0
20260504020203 25 289 4.8 4.8 0.00 0.00 0.00 34 1010.1
20260504014704 26 281 3.2 9.7 0.00 0.00 0.00 33 1010.2
20260504012704 26 207 4.8 8.0 0.00 0.00 0.00 35 1010.5
20260504012204 26 242 3.2 9.7 0.00 0.00 0.00 35 1010.4
20260504011704 26 211 4.8 11.3 0.00 0.00 0.00 35 1010.6
20260504011204 26 233 3.2 4.8 0.00 0.00 0.00 36 1010.6
20260504010704 26 298 3.2 4.8 0.00 0.00 0.00 35 1010.7
20260504010205 26 328 4.8 9.7 0.00 0.00 0.00 32 1010.7
20260504005206 26 273 4.8 11.3 0.00 0.00 0.00 34 1010.8
20260504004703 26 294 4.8 12.9 0.00 0.00 0.00 34 1011.0
20260504003706 26 310 3.2 12.9 0.00 0.00 0.00 34 1011.0
20260504003204 26 314 3.2 12.9 0.00 0.00 0.00 36 1011.0
20260504002704 26 290 6.4 14.5 0.00 0.00 0.00 32 1011.0
20260504002205 26 320 6.4 12.9 0.00 0.00 0.00 34 1011.1
20260504001705 26 329 4.8 14.5 0.00 0.00 0.00 35 1011.1
20260504000204 26 283 4.8 11.3 0.00 0.00 0.00 35 1011.2
20260503235204 26 293 3.2 8.0 0.00 0.00 0.00 37 1011.3
20260503234704 25 263 4.8 11.3 0.00 0.00 0.00 35 1011.3
20260503234204 25 326 6.4 9.7 0.00 0.00 0.00 35 1011.3
20260503233706 25 316 8.0 14.5 0.00 0.00 0.00 37 1011.4
20260503233203 25 340 8.0 16.1 0.00 0.00 0.00 34 1011.5
20260503231204 25 293 4.8 9.7 0.00 0.00 0.00 38 1011.7
20260503230705 25 275 8.0 12.9 0.00 0.00 0.00 40 1011.7
20260503230204 25 294 3.2 12.9 0.00 0.00 0.00 41 1011.8
20260503225704 25 281 4.8 12.9 0.00 0.00 0.00 44 1011.9
20260503225204 25 335 6.4 12.9 0.00 0.00 0.00 41 1012.0
20260503224704 25 305 3.2 11.3 0.00 0.00 0.00 41 1012.0
20260503224206 25 285 4.8 12.9 0.00 0.00 0.00 40 1012.1
20260503223203 25 245 4.8 11.3 0.00 0.00 0.00 43 1012.3
20260503222705 25 257 3.2 9.7 0.00 0.00 0.00 42 1012.4
20260503222206 25 20 1.6 4.8 0.00 0.00 0.00 44 1012.5
20260503221205 24 347 6.4 11.3 0.00 0.00 0.00 42 1012.6
20260503220205 24 265 4.8 9.7 0.00 0.00 0.00 45 1012.8
20260503215703 23 46 4.8 8.0 0.00 0.00 0.00 46 1012.8